Location: Antichan
(42.9728°N, 0.6667°E)
Time: 17:16:41
(UTC+00:00)

Cosmos 2082 Rocket - Pass Details

Date: 15 August 2020
Orbit: 835 x 852 km, 71.0° (Epoch: 17 September)

Event Time Altitude Azimuth Distance (km) Brightness Sun altitude
Rises 20:01:46 0° 213° (SSW) 3,400 5.4 -11.2°
Reaches altitude 10° 20:04:14 10° 217° (SW) 2,466 4.7 -11.6°
Maximum altitude 20:09:50 61° 298° (WNW) 957 2.8 -12.5°
Drops below altitude 10° 20:15:27 10° 18° (NNE) 2,470 4.8 -13.3°
Sets 20:17:56 0° 22° (NNE) 3,406 5.5 -13.7°
